Shawnee, OK

12:14 AM CDT on September 29, 2016 (GMT -0500)
Shawnee Municipal

Weather History for KSNL - December, 2012

Change the Weather History Date:

Saturday, December 15, 2012

  Actual Average (KTIK) Record (KTIK)
Temperature  
Mean Temperature 56 °F -  
Max Temperature 60 °F 48 °F 66 °F (2003)
Min Temperature 51 °F 29 °F 14 °F (2008)
Degree Days  
Heating Degree Days 10    
Growing Degree Days 6 (Base 50)    
Moisture  
Dew Point 42 °F    
Average Humidity 61    
Maximum Humidity 100    
Minimum Humidity 48    
Precipitation  
Precipitation 0.01 in - - ()
Sea Level Pressure  
Sea Level Pressure 29.76 in    
Wind  
Wind Speed 12 mph (SW)    
Max Wind Speed 17 mph    
Max Gust Speed 28 mph    
Visibility 10 miles    
Events      
Averages and records for this station are not official NWS values.
T = Trace of Precipitation, MM = Missing Value Source: NWS Daily Summary

Daily Weather History Graph

Daily Weather History Graph

Search for Another Location

Airport or City:

Trip Planner

Search our weather history database for the weather conditions in past years. The results will help you decide how hot, cold, wet, or windy it might be!

Date:

Astronomy

Dec. 15, 2012 Rise Set
Actual Time 7:29 AM CST 5:16 PM CST
Civil Twilight 7:01 AM CST 5:45 PM CST
Nautical Twilight 6:29 AM CST 6:16 PM CST
Astronomical Twilight 5:58 AM CST 6:47 PM CST
Moon 9:27 AM CST (12/15) 8:17 PM CST (12/15)
Length of Visible Light 10h 43m
Length of Day
9h 47m
Waxing Crescent, 8% of the Moon is Illuminated
Dec 15
Waxing Crescent
Dec 19
First Quarter
Dec 28
Full
Jan 4
Last Quarter
Jan 11
New

Hourly Weather History & Observations

Time (CST) Temp. Dew Point Humidity Pressure Visibility Wind Dir Wind Speed Gust Speed Precip Events Conditions
12:15 AM 53.6 °F 53.6 °F 100% 29.75 in 10.0 mi South 12.7 mph 18.4 mph N/A   Scattered Clouds
12:35 AM 53.6 °F 51.8 °F 94% 29.75 in 10.0 mi South 11.5 mph - 0.01 in   Clear
12:55 AM 53.6 °F 51.8 °F 94% 29.75 in 10.0 mi South 12.7 mph - 0.01 in   Clear
1:15 AM 55.4 °F 53.6 °F 94% 29.74 in 10.0 mi SSW 15.0 mph 20.7 mph N/A   Clear
1:35 AM 55.4 °F 51.8 °F 88% 29.74 in 10.0 mi SSW 13.8 mph - N/A   Clear
1:55 AM 55.4 °F 51.8 °F 88% 29.74 in 10.0 mi SSW 15.0 mph 23.0 mph N/A   Clear
2:15 AM 55.4 °F 51.8 °F 88% 29.73 in 10.0 mi SW 11.5 mph 21.9 mph N/A   Clear
2:35 AM 55.4 °F 50.0 °F 82% 29.73 in 10.0 mi SSW 16.1 mph - N/A   Clear
2:55 AM 55.4 °F 50.0 °F 82% 29.73 in 10.0 mi SW 13.8 mph - N/A   Clear
3:15 AM 55.4 °F 48.2 °F 77% 29.73 in 10.0 mi SSW 13.8 mph 21.9 mph N/A   Clear
3:35 AM 55.4 °F 46.4 °F 72% 29.73 in 10.0 mi SW 16.1 mph 23.0 mph N/A   Clear
3:55 AM 55.4 °F 44.6 °F 67% 29.72 in 10.0 mi SW 13.8 mph 20.7 mph N/A   Clear
4:15 AM 55.4 °F 44.6 °F 67% 29.72 in 10.0 mi SW 17.3 mph 24.2 mph N/A   Clear
4:35 AM 53.6 °F 42.8 °F 67% 29.71 in 10.0 mi SSW 16.1 mph 23.0 mph N/A   Clear
4:55 AM 53.6 °F 41.0 °F 62% 29.72 in 10.0 mi SW 13.8 mph 21.9 mph N/A   Clear
5:15 AM 53.6 °F 41.0 °F 62% 29.72 in 10.0 mi SW 16.1 mph 27.6 mph N/A   Clear
5:35 AM 53.6 °F 41.0 °F 62% 29.72 in 10.0 mi SW 13.8 mph 23.0 mph N/A   Clear
5:55 AM 53.6 °F 41.0 °F 62% 29.74 in 10.0 mi SW 11.5 mph 19.6 mph N/A   Clear
6:15 AM 51.8 °F 41.0 °F 67% 29.75 in 10.0 mi SW 13.8 mph 17.3 mph N/A   Clear
6:35 AM 51.8 °F 41.0 °F 67% 29.76 in 10.0 mi SSW 13.8 mph 20.7 mph N/A   Clear
6:55 AM 51.8 °F 39.2 °F 62% 29.77 in 10.0 mi SW 10.4 mph 16.1 mph N/A   Clear
7:15 AM 51.8 °F 41.0 °F 67% 29.77 in 10.0 mi SW 11.5 mph 18.4 mph N/A   Clear
7:35 AM 51.8 °F 41.0 °F 67% 29.77 in 10.0 mi SW 13.8 mph 20.7 mph N/A   Clear
7:55 AM 51.8 °F 41.0 °F 67% 29.78 in 10.0 mi SW 11.5 mph 18.4 mph N/A   Clear
8:15 AM 51.8 °F 39.2 °F 62% 29.79 in 10.0 mi SW 11.5 mph - N/A   Clear
8:35 AM 51.8 °F 41.0 °F 67% 29.79 in 10.0 mi SW 11.5 mph 17.3 mph N/A   Clear
8:55 AM 53.6 °F 41.0 °F 62% 29.79 in 10.0 mi SW 12.7 mph 21.9 mph N/A   Clear
9:15 AM 53.6 °F 39.2 °F 58% 29.80 in 10.0 mi SW 12.7 mph - N/A   Clear
9:35 AM 55.4 °F 41.0 °F 58% 29.82 in 10.0 mi SSW 8.1 mph - N/A   Clear
9:55 AM 55.4 °F 41.0 °F 58% 29.82 in 10.0 mi SW 11.5 mph 18.4 mph N/A   Clear
10:15 AM 57.2 °F 41.0 °F 55% 29.82 in 10.0 mi WSW 10.4 mph - N/A   Clear
10:35 AM 59.0 °F 41.0 °F 51% 29.82 in 10.0 mi SW 11.5 mph - N/A   Clear
10:55 AM 59.0 °F 41.0 °F 51% 29.82 in 10.0 mi WSW 15.0 mph - N/A   Clear
11:15 AM 59.0 °F 41.0 °F 51% 29.82 in 10.0 mi SW 11.5 mph - N/A   Clear
11:35 AM 59.0 °F 41.0 °F 51% 29.81 in 10.0 mi SW 11.5 mph - N/A   Clear
11:55 AM 60.8 °F 41.0 °F 48% 29.81 in 10.0 mi SW 12.7 mph - N/A   Clear
12:15 PM 60.8 °F 41.0 °F 48% 29.79 in 10.0 mi WSW 12.7 mph - N/A   Clear
12:35 PM 60.8 °F 41.0 °F 48% 29.78 in 10.0 mi WSW 11.5 mph - N/A   Clear
12:55 PM 60.8 °F 41.0 °F 48% 29.77 in 10.0 mi SSW 12.7 mph - N/A   Clear
1:15 PM 60.8 °F 41.0 °F 48% 29.77 in 10.0 mi SW 13.8 mph - N/A   Clear
1:35 PM 60.8 °F 41.0 °F 48% 29.77 in 10.0 mi SW 15.0 mph - N/A   Clear
1:55 PM 60.8 °F 41.0 °F 48% 29.75 in 10.0 mi SW 15.0 mph - N/A   Clear
2:15 PM 60.8 °F 41.0 °F 48% 29.75 in 10.0 mi SW 13.8 mph 20.7 mph N/A   Clear
2:35 PM 60.8 °F 41.0 °F 48% 29.75 in 10.0 mi SW 15.0 mph - N/A   Clear
2:55 PM 60.8 °F 41.0 °F 48% 29.74 in 10.0 mi SW 11.5 mph - N/A   Clear
3:15 PM 60.8 °F 41.0 °F 48% 29.75 in 10.0 mi SSW 13.8 mph 19.6 mph N/A   Clear
3:35 PM 60.8 °F 41.0 °F 48% 29.75 in 10.0 mi SW 16.1 mph 21.9 mph N/A   Clear
3:55 PM 60.8 °F 41.0 °F 48% 29.75 in 10.0 mi SSW 17.3 mph 23.0 mph N/A   Clear
4:15 PM 60.8 °F 41.0 °F 48% 29.75 in 10.0 mi SW 10.4 mph - N/A   Clear
4:35 PM 59.0 °F 41.0 °F 51% 29.75 in 10.0 mi SW 9.2 mph - N/A   Clear
4:55 PM 59.0 °F 41.0 °F 51% 29.77 in 10.0 mi SW 10.4 mph - N/A   Clear
5:15 PM 59.0 °F 41.0 °F 51% 29.76 in 10.0 mi SW 8.1 mph - N/A   Clear
5:35 PM 55.4 °F 41.0 °F 58% 29.75 in 10.0 mi SW 8.1 mph - N/A   Clear
5:55 PM 55.4 °F 41.0 °F 58% 29.76 in 10.0 mi SSW 5.8 mph - N/A   Clear
6:15 PM 55.4 °F 41.0 °F 58% 29.77 in 10.0 mi SSW 5.8 mph - N/A   Clear
6:35 PM 53.6 °F 39.2 °F 58% 29.77 in 10.0 mi SSW 5.8 mph - N/A   Clear
6:55 PM 53.6 °F 39.2 °F 58% 29.77 in 10.0 mi South 3.5 mph - N/A   Clear
7:15 PM 53.6 °F 41.0 °F 62% 29.77 in 10.0 mi South 4.6 mph - N/A   Clear
7:35 PM 53.6 °F 39.2 °F 58% 29.77 in 10.0 mi SSW 8.1 mph - N/A   Clear
7:55 PM 53.6 °F 39.2 °F 58% 29.78 in 10.0 mi SSW 6.9 mph - N/A   Clear
8:15 PM 53.6 °F 41.0 °F 62% 29.78 in 10.0 mi SSW 6.9 mph - N/A   Clear
8:35 PM 53.6 °F 41.0 °F 62% 29.77 in 10.0 mi SSW 6.9 mph - N/A   Clear
8:55 PM 53.6 °F 41.0 °F 62% 29.77 in 10.0 mi SW 9.2 mph - N/A   Clear
9:15 PM 55.4 °F 41.0 °F 58% 29.77 in 10.0 mi SW 9.2 mph - N/A   Clear
9:35 PM 55.4 °F 39.2 °F 54% 29.77 in 10.0 mi SW 12.7 mph 18.4 mph N/A   Clear
9:55 PM 55.4 °F 39.2 °F 54% 29.77 in 10.0 mi SW 11.5 mph - N/A   Clear
10:15 PM 55.4 °F 39.2 °F 54% 29.77 in 10.0 mi SSW 9.2 mph - N/A   Clear
10:35 PM 55.4 °F 39.2 °F 54% 29.77 in 10.0 mi SSW 11.5 mph - N/A   Clear
10:55 PM 55.4 °F 39.2 °F 54% 29.76 in 10.0 mi SW 11.5 mph - N/A   Clear
11:15 PM 55.4 °F 39.2 °F 54% 29.76 in 10.0 mi SSW 6.9 mph - N/A   Clear
11:35 PM 55.4 °F 41.0 °F 58% 29.76 in 10.0 mi SSW 8.1 mph - N/A   Clear
11:55 PM 55.4 °F 41.0 °F 58% 29.76 in 10.0 mi SSW 6.9 mph - N/A   Clear